www.pogodaiklimat.ru

Погода и климат >> Архив погоды >> Алжир >> Мильяна


ПОГОДА в Мильяне

  • Прогноз погоды в Мильяне
  • Монитор погоды в Мильяне

АРХИВ ПОГОДЫ в Мильяне

Время (UTC), дата Ветер
(напр.,м/с)
 
Видим.   Явления Облачность Т
(С)
Тd
(С)
f
(%)
Тe
(С)
Тes
(С)
Комфортность P
(гПа)
Po
(гПа)
Тmin
(С)
Tmax
(С)
R
(мм)
R24
(мм)
S
(см)
18 10.09 ЮЗ 4 15 км 5/3 800 м
[Cu med, cong Ac trans Ci sp]
+21.3 +3.8 32 +22 +22 комфорт 1009.4 928.4 +27.2
06 11.09 З 1 20 км 4/1 900 м
[Sc Ac trans]
+11.8 +7.7 76 +12 +12 1013.1 929.2 +11.8
09 11.09 ЮВ 3 20 км 4/3 700 м
[Cu Sc Ac trans Ci sp]
+22.7 +9.8 44 +24 +29 комфорт 1014.5 933.4
12 11.09 Ю 2 20 км 8/5 700 м
[Cu Sc Ac trans Ci sp]
+23.1 +8.0 38 +24 +30 комфорт 1014.8 933.8
15 11.09 С 7 20 км 8/4 700 м
[Cb cap Ac trans]
+18.9 +9.5 54 +19 +20 1015.2 933.1
18 11.09 С 7 15 км 9/8 700 м
[Cb cap Ac trans]
+16.3 +9.3 63 +15 +15 1017.1 934.1 +24.7
06 12.09 СЗ 1 15 км 10/8 300 м
[St Ac trans]
+12.6 +12.1 97 +13 +13 1020.0 935.7 +12.1 5
09 12.09 ЮВ 3 10 км 9/5 300 м
[Cu Sc Ac trans Ci sp]
+16.3 +15.6 96 +16 +18 1022.1 938.7
12 12.09 ЮВ 4 15 км 8/1 600 м
[Cu hum Ac trans Ci sp]
+25.2 +16.8 60 +29 +35 душно 1020.3 939.4
15 12.09 СВ 4 15 км 9/1 600 м
[Cu Sc Ac trans Ci sp]
+23.6 +16.9 66 +27 +30 жарко 1020.2 938.9
18 12.09 СЗ 3 9000 м гроза без осадков {ливн. осадки} 9/5 90 м
[Cb cap Ac trans Ci sp]
+17.1 +14.9 87 +17 +17 1021.8 938.6 +26.7 2
06 13.09 С 3 9000 м 6/3 800 м
[Cu Sc Ac trans Ci sp]
+18.4 +16.8 90 +19 +19 1020.4 937.7 +16.6 12
09 13.09 В 5 7000 м 4/0
[Ac trans Ci sp]
+23.8 +17.8 69 +28 +32 душно 1020.5 939.2
12 13.09 ЮВ 5 10 км 5/3 800 м
[Cu med, cong Ac trans Ci fib]
+30.7 +20.0 53 +37 +42 очень
душно
1019.4 940.0
15 13.09 СВ 6 9000 м 5/4 800 м
[Cu med, cong Ci sp]
+29.9 +20.7 58 +37 +39 очень
душно
1017.7 938.2
18 13.09 СВ 5 8000 м гроза без осадков {ливн. осадки} 8/4 800 м
[Cb cap Ci sp]
+22.5 +19.8 85 +29 +29 очень
душно
1018.2 936.8 +31.4 25
06 14.09 СВ 2 9000 м 3/1 800 м
[Cu med, cong Ac trans Ci fib]
+22.9 +14.6 59 +27 +27 душно 1019.2 937.8 +22.3 25
09 14.09 В 5 10 км 1/0
[Ac trans Ci sp]
+30.9 +18.3 47 +36 +40 очень
душно
1018.8 939.5
12 14.09 В 3 8000 м 3/1 800 м
[Cu med, cong Ac trans Ci sp]
+35.9 +19.8 39 +41 +51 опасность
перегрева
1017.4 939.4
15 14.09 ЮВ 8 8000 м 9/5 700 м
[Cb cap Ci sp]
+34.2 +17.0 36 +37 +38 очень
душно
1015.0 936.8
18 14.09 СВ 9 6000 м гроза, ливневой дождь 10/10 700 м
[Cb cap]
+19.8 +17.4 86 +22 +22 комфорт 1017.3 935.2 +36.9 6
06 15.09 СВ 6 15 км 3/3 900 м
[Sc Ac trans]
+22.9 +14.1 58 +26 +26 жарко 1019.1 937.7 +18.1 23
09 15.09 В 3 15 км 1/0
[Ci sp]
+30.3 +15.8 42 +33 +40 душно 1018.0 938.6
12 15.09 ЮВ 2 15 км 1/1 800 м
[Cu med, cong Ac trans]
+34.8 +18.3 38 +39 +54 опасность
солнечного
удара
1016.7 938.5
15 15.09 ЮВ 2 10 км 3/0
[Ci sp]
+36.8 +15.7 29 +39 +46 очень
душно
1014.1 936.6
18 15.09 В 4 8000 м 4/1 800 м
[Cu med, cong Ac trans Ci sp]
+29.2 +17.6 50 +34 +34 очень
душно
1014.6 935.2 +36.9
06 16.09 СЗ 2 8000 м 1/1 800 м
[Cu med, cong]
+25.2 +13.8 49 +27 +27 жарко 1015.9 935.4 +22.9
09 16.09 ЮВ 2 8000 м 1/1 800 м
[Cu hum]
+29.3 +21.5 63 +37 +44 очень
душно
1016.5 937.0
12 16.09 ЮВ 2 8000 м ясно +31.2 +21.1 55 +39 +53 опасность
солнечного
удара
1016.5 937.4
15 16.09 Ю 2 9000 м 1/1 700 м
[Cu med, cong]
+30.6 +20.4 55 +38 +44 очень
душно
1015.8 936.7
18 16.09 СВ 5 8000 м 1/1 90 м
[Cu med, cong]
+23.2 +19.3 79 +30 +30 очень
душно
1016.3 935.2 +31.4
06 17.09 штиль 0 3000 м 3/1 90 м
[St]
+19.7 +18.3 92 +22 +22 комфорт 1016.5 934.5 +19.6
09 17.09 ЮВ 3 6000 м 4/3 90 м
[St Ac trans Ci fib]
+27.9 +21.2 67 +35 +40 очень
душно
1016.6 936.7
12 17.09 В 5 8000 м 8/0
[Ac trans Ci sp]
+30.6 +21.4 58 +39 +45 очень
душно
1015.5 936.4
15 17.09 ЮВ 7 9000 м 9/1 800 м
[Cu med, cong Ac trans Ci sp]
+28.3 +21.2 65 +36 +37 очень
душно
1013.8 934.2

 

Местоположение метеостанции Мильяна (Алжир): широта 36.30 долгота 2.23 высота над уровнем моря 721 м.

В архиве по умолчанию представлена погода в Мильяне за последнюю неделю. Архивные данные за месяц целиком и за предыдущие месяцы, начиная с января 2011 года, Вы можете получить, выбрав интересующий диапазон дат из раскрывающегося списка и нажав кнопку "Ввод!".


*Определитесь, кто Вы:
робот инопланетянин человек

Внимание! Время в таблицах - всемирное. Для получения местного времени необходимо прибавить поправку, которая равна 1 ч.

Смотрите также архив погоды в соседних городах и на ближайших метеорологических станциях:

Погода в Медеа (Алжир) (45 км)
Погода в Шлефе (Алжир) (81 км)
Погода в Тенесе (Алжир) (84 км)
Погода в Алжире (Алжир) (94 км)
Погода Алжир аэропорт (Алжир) (98 км)
Погода в Тиарете (Алжир) (126 км)
Погода в Кзар Шелала (Алжир) (126 км)
Погода в Айн-Бессеме (Алжир) (129 км)
Погода в Буире (Алжир) (148 км)
Погода в Релизане (Алжир) (164 км)

Пояснения к столбцам:

Ветер - указаны скорость ветра в м/с - средняя за 10 мин, порывы в срок и между сроками (в фигурных скобках) и направление, откуда дует ветер: С - северный, СВ - северо-восточный, В - восточный, ЮВ - юго-восточный, Ю - южный, ЮЗ - юго-западный, З - западный, СЗ - северо-западный.
Видимость - горизонтальная дальность видимости в метрах или километрах. При видимости от 1 до 10 км при отсутствии осадков обычно наблюдается дымка, при ухудшении видимости до 1 км и менее - туман. В сухую погоду видимость может ухудшаться дымом, пылью или мглою.
Явления - указаны атмосферные явления, наблюдавшиеся в срок или в последний час перед сроком; фигурными скобками обозначены явления, наблюдавшиеся между сроками (за 1-3 часа до срока); квадратными скобками обозначены град или гололедные отложения с указанием их диаметра в мм.
Облачность - указаны через наклонную черту общая и нижняя облачность в баллах и высота нижней границы облаков в метрах; квадратными скобками обозначены формы облаков: Ci - перистые, Cs - перисто-слоистые, Cc - перисто-кучевые, Ac - высококучевые, As - высокослоистые, Sc - слоисто-кучевые, Ns - слоисто-дождевые, Cu - кучевые, Cb - кучево-дождевые. Подробнее классификацию облаков см. в Атласе облаков (PDF).
T - Температура воздуха - температура, измеренная на высоте 2 м над землей.
Td - Температура точки росы - температура, при понижении до которой содержащийся в воздухе водяной пар достигнет насыщения.
f - Относительная влажность воздуха - влажноcть воздуха, измеренная на высоте 2 м над землей.
Te - Эффективная температура - температура, которую ощущает одетый по сезону человек в тени. Характеристика душности погоды. При расчете учитывается влияние влажности воздуха и скорости ветра на теплоощущения человека.
Tes - Эффективная температура на солнце - температура, которую ощущает человек, с поправкой на солнечный нагрев. Характеристика знойности погоды. Зависит от высоты солнца над горизонтом, облачности и скорости ветра. Ночью, в пасмурную погоду, а также при ветре 12 м/с и более поправка равна нулю.
P - Атмосферное давление - приведенное к уровню моря атмосферное давление.
Po - Атмосферное давление - измеренное на уровне метеостанции атмосферное давление.
Tmin - Минимальная температура - минимум температуры воздуха на высоте 2 м над землей.
Tmax - Максимальная температура - максимум температуры воздуха на высоте 2 м над землей.
R - Количество осадков - Количество выпавших осадков за период времени, мм. При наведении курсора мыши на число - период времени, за который выпало указанное количество осадков.
R24 - Количество осадков - Количество выпавших осадков за 24 часа, мм.
S - Снежный покров - Высота снежного покрова, см. При наведении курсора мыши на число - состояние снежного покрова и степень покрытия местности в баллах.